This demonstration page uses our WeatherBlox Daily Observations layout. Learn more.

Left ArrowRight Arrow

41.86663, -103.66717

Hourly Observations for October 18, 2018

Temp ( °F °C ) Dew Point ( °F °C ) Humidity (%) Winds ( mph kmh ) Pressure ( in mb ) Visibility ( mi km ) Precip ( " mm )
12:53 am 00:53 Partly Cloudy 53 11.7 38 3.3 57 57 SE 9 15 30.24 1024 10 16 0.00 0.00
1:53 am 01:53 Clear 51 10.6 39 3.9 64 64 SE 13 20 30.22 1024 10 16 0.00 0.00
2:53 am 02:53 Clear 49 9.4 39 3.9 69 69 SSE 8 13 30.20 1023 10 16 0.00 0.00
3:53 am 03:53 Clear 49 9.4 38 3.3 66 66 VRB 7 11 30.18 1022 10 16 0.00 0.00
4:53 am 04:53 Clear 45 7.2 37 2.8 74 74 S 9 15 30.18 1022 10 16 0.00 0.00
5:53 am 05:53 Clear 45 7.2 37 2.8 74 74 ESE 7 11 30.19 1022 10 16 0.00 0.00
6:53 am 06:53 Clear 40 4.4 36 2.2 86 86 E 8 13 30.23 1024 10 16 0.00 0.00
7:53 am 07:53 Sunny 42 5.6 38 3.3 85 85 E 8 13 30.23 1024 10 16 0.00 0.00
8:53 am 08:53 Sunny 50 10 39 3.9 66 66 ESE 9 15 30.22 1023 10 16 0.00 0.00
9:53 am 09:53 Sunny 54 12.2 39 3.9 57 57 SSE 7 11 30.20 1023 10 16 0.00 0.00
10:53 am 10:53 Sunny 58 14.4 39 3.9 50 50 S 6 9 30.16 1022 10 16 0.00 0.00
11:53 am 11:53 Sunny 62 16.7 38 3.3 41 41 VRB 5 7 30.11 1020 10 16 0.00 0.00
12:53 pm 12:53 Sunny 67 19.4 38 3.3 35 35 VRB 6 9 30.06 1018 10 16 0.00 0.00
1:53 pm 13:53 Sunny 70 21.1 36 2.2 29 29 SSW 8 13 30.02 1017 10 16 0.00 0.00
2:53 pm 14:53 Sunny 71 21.7 36 2.2 28 28 VRB 7 11 30.00 1016 10 16 0.00 0.00
3:53 pm 15:53 Sunny 71 21.7 36 2.2 28 28 SSE 9 15 29.98 1015 10 16 0.00 0.00
4:53 pm 16:53 Sunny 70 21.1 37 2.8 30 30 SE 9 15 29.97 1015 10 16 0.00 0.00
5:53 pm 17:53 Sunny 61 16.1 40 4.4 46 46 SE 8 13 29.99 1016 10 16 0.00 0.00
6:53 pm 18:53 Partly Cloudy 54 12.2 40 4.4 59 59 ESE 5 7 30.03 1017 10 16 0.00 0.00
7:53 pm 19:53 Cloudy 51 10.6 41 5 69 69 SE 6 9 30.04 1017 10 16 0.00 0.00
8:53 pm 20:53 Partly Cloudy 52 11.1 43 6.1 72 72 SSE 8 13 30.03 1017 10 16 0.00 0.00
9:53 pm 21:53 Mostly Cloudy 50 10 42 5.6 74 74 Calm 30.03 1017 10 16 0.00 0.00
10:53 pm 22:53 Clear 48 8.9 38 3.3 68 68 WNW 5 7 30.03 1017 10 16 0.00 0.00
11:53 pm 23:53 Clear 45 7.2 37 2.8 74 74 NNW 3 6 30.03 1017 10 16 0.00 0.00

Powered by AerisWeather